Simultaneous Nadir Overpasses (SNOs) Predictions

Prediction of SNOs between LANDSAT-8 and METOP-A Satellite Orbit:

Table of predicted SNOs for the next 14.0 days since TLE Epoch: 2/20/2016
Index Date (LANDSAT-8) Time (LANDSAT-8) Lat,Lon (LANDSAT-8) SZA (LANDSAT-8 ) Date (METOP-A) Time (METOP-A) Lat,Lon (METOP-A) SZA (METOP-A ) Distance(km) Time Diff (sec)
1 02/22/2016 23:17:26 80.20,-140.25 91.22 02/22/2016 23:16:13 80.47,-141.54 91.37 38.98 73
2 02/23/2016 00:06:21 -81.12, 37.97 87.13 02/23/2016 00:06:19 -81.12, 38.12 87.12 2.63 2
3 02/23/2016 00:55:46 81.15,-153.95 92.92 02/23/2016 00:56:58 81.15,-153.83 92.96 1.93 72
4 02/25/2016 18:51:09 81.10, -63.44 91.83 02/25/2016 18:50:04 81.10, -63.52 91.80 1.43 65
5 02/25/2016 19:40:35 -81.13, 104.54 88.14 02/25/2016 19:40:43 -81.12, 104.52 88.14 0.46 8
6
